[[{"header":{"parameterUnit":"m.s-1","parameterCategory":1,"la1":30.2991,"la2":30.254,"lo1":-89.0895,"lo2":-89.0444,"dy":0.0017,"dx":0.0017,"nx":28,"ny":28,"refTime":"2025-06-04T21:00:00:Z","depth":0,"parameterNumber":2,"parameterNumberName":"U-component_of_WINDS"},"data":[0,0,0,0,0,0,0,0,0,0,0,0,0,0,0,0,0,0,0,0,0,0,0,0,0,0,0,0,0,0,0,0,0,0,0,0,0,0,0,0,0,0,0,0,0,0,0,0,0,0,0,0,0,0,0,0,0,0,2.285,2.2851,0,2.2904,2.2905,2.2905,2.2889,2.2888,2.2887,2.2886,2.2938,2.2941,2.2943,0,0,0,0,0,0,0,0,0,0,0,0,0,2.2729,2.2731,2.285,2.2851,2.2851,2.2904,2.2905,2.2905,2.2889,2.2888,2.2886,2.2885,2.2937,2.294,2.2943,0,0,0,0,0,0,0,0,0,0,0,0,0,2.2782,2.2732,2.285,2.285,2.285,2.2904,2.2905,2.2906,2.2889,2.2888,2.2886,2.2885,2.2937,2.294,2.2944,2.3,0,0,2.2955,2.2957,0,0,0,0,0,0,0,0,2.2779,2.2786,2.2849,2.285,2.285,2.2888,2.2881,2.2937,2.289,2.2874,2.2886,2.2884,2.2923,2.2927,2.2941,2.3002,2.3005,2.2955,2.2957,2.2959,2.296,0,0,0,0,0,0,0,2.2775,2.2784,2.2871,2.285,2.2851,2.2845,2.2851,2.2892,2.2907,2.2876,2.2875,2.2881,2.2923,2.2938,2.2942,2.3005,2.2955,2.2958,2.2961,2.2962,2.3112,2.3114,0,0,0,0,0,0,2.2772,2.2781,2.2869,2.2873,2.281,2.2849,2.2855,2.2878,2.2907,2.291,2.2883,2.288,2.2932,2.2938,2.2944,2.3009,2.2959,2.2962,2.2965,2.311,2.3112,2.3114,0,0,0,0,0,0,2.2769,2.278,2.2867,2.2827,2.2837,2.2853,2.2878,2.288,2.2894,2.2912,2.2915,2.2895,2.2931,2.2939,2.2986,2.3011,2.2964,2.2967,2.3108,2.3111,2.3113,2.3142,0,0,0,0,0,0,2.2766,2.2779,2.2801,2.2827,2.284,2.2909,2.288,2.2882,2.2901,2.2899,2.2925,2.2927,2.293,2.298,2.2989,2.3015,2.297,2.3106,2.3109,2.3112,2.3138,2.3145,2.315,0,0,0,0,0,2.2761,2.2807,2.2803,2.2813,2.2868,2.2911,2.2918,2.2921,2.2903,2.2925,2.2936,2.2926,2.3007,2.2985,2.2995,2.3022,2.3104,2.3108,2.3112,2.3136,2.3144,2.315,0,0,0,0,0,0,2.2784,2.2811,2.2806,2.2862,2.2884,2.2908,2.2936,2.293,2.2957,2.2953,2.2956,2.2962,2.3009,2.3021,2.2996,2.3077,2.3053,2.3059,2.3067,2.3075,2.3081,2.3076,2.2973,0,0,0,0,0,2.2795,2.2828,2.285,2.2897,2.2909,2.292,2.2939,2.294,2.2962,2.2972,2.2986,2.3008,2.3037,2.3057,2.3086,2.3141,2.3144,2.3164,2.317,2.3175,2.318,2.3206,2.3214,2.3127,2.3127,2.3127,0,0,2.2819,2.2838,2.2859,2.2902,2.2919,2.2952,2.2928,2.2965,2.2988,2.2977,2.3021,2.3033,2.3057,2.3107,2.313,2.3118,2.3205,2.318,2.3184,2.3186,2.3211,2.3219,2.3227,2.313,2.313,2.3129,0,0,2.2879,2.2898,2.2938,2.2955,2.2982,2.2989,2.2999,2.3023,2.303,2.3075,2.3066,2.3094,2.3147,2.3163,2.3178,2.3242,2.3233,2.3252,2.3282,2.3308,2.3315,2.3321,2.3341,2.3349,2.3257,2.3257,2.3257,0,2.2905,2.2955,2.2959,2.2995,2.3013,2.3005,2.3044,2.3061,2.3095,2.3107,2.3094,2.3158,2.3174,2.3226,2.3241,2.3255,2.3264,2.3248,2.3314,2.332,2.3326,2.3345,2.3353,2.3259,2.3259,2.3258,2.3258,0,2.2984,2.3018,2.3047,2.308,2.3102,2.314,2.3148,2.3169,2.3168,2.3176,2.322,2.3238,2.3269,2.3282,2.3282,2.3334,2.3326,2.3314,2.3289,2.3336,2.3354,2.3361,2.3261,2.3261,2.326,2.326,0,0,2.3059,2.3093,2.3103,2.3117,2.3145,2.3171,2.3207,2.3238,2.3255,2.3279,2.3307,2.3351,2.3339,2.3357,2.3357,2.3381,2.3426,2.3365,2.3366,2.3374,2.3482,2.3489,2.3498,2.3422,2.3423,2.3424,2.3479,0,2.3119,2.3183,2.3187,2.3245,2.3275,2.3267,2.3298,2.3318,2.3326,2.3352,2.336,2.339,2.3374,2.3384,2.3407,2.3416,2.3448,2.3413,2.3446,2.3447,2.3438,2.3508,2.3516,2.3567,2.3486,2.3488,2.3489,0,2.3197,2.3223,2.3284,2.3305,2.3318,2.3346,2.3373,2.3399,2.342,2.3424,2.3443,2.344,2.3475,2.345,2.3497,2.3473,2.3487,2.3493,2.3495,2.3497,2.3469,2.3508,2.3583,2.359,2.35,2.3499,2.3498,0,2.3242,2.3292,2.3334,2.3347,2.3373,2.3393,2.3405,2.3424,2.3442,2.3465,2.3476,2.3504,2.3518,2.3538,2.3542,2.3525,2.3588,2.3565,2.359,2.359,2.3602,2.3601,2.3678,2.3615,2.3615,2.3615,2.3615,0,2.3307,2.3344,2.3354,2.338,2.342,2.3424,2.3463,2.3473,2.349,2.3516,2.3512,2.3536,2.354,2.3565,2.3568,2.3605,2.3612,2.3615,2.3615,2.3614,2.3613,2.3621,2.3617,2.3617,2.3617,2.3616,2.3616,0,2.3364,2.3373,2.3417,2.3439,2.3445,2.3473,2.349,2.3514,2.3521,2.3554,2.3562,2.3573,2.3602,2.3608,2.3643,2.3644,2.3687,2.3685,2.368,2.3679,2.3703,2.37,2.3786,2.3796,2.3729,2.373,2.3731,0,2.3404,2.3431,2.3456,2.3473,2.3485,2.3514,2.3531,2.3535,2.3554,2.3579,2.3598,2.3627,2.3649,2.3695,2.3705,2.3731,2.3728,2.3756,2.3731,2.3729,2.3725,2.3722,2.3723,2.376,2.3761,2.3761,2.3762,0,2.3472,2.3475,2.3501,2.3528,2.3549,2.357,2.359,2.3604,2.3611,2.3631,2.3661,2.3678,2.3713,2.374,2.3765,2.3775,2.3769,2.377,2.3777,2.3775,2.377,2.377,2.369,2.3767,2.3767,2.3766,2.3766,2.3766,2.352,2.3543,2.3563,2.3591,2.3607,2.3626,2.3648,2.3658,2.3683,2.3711,2.3712,2.3743,2.3761,2.3794,2.3807,2.383,2.3821,2.3831,2.3834,2.3835,2.3836,2.3768,2.3835,2.3835,2.3835,2.3834,2.3834,0,2.3586,2.3598,2.3624,2.3652,2.3674,2.3667,2.3689,2.3707,2.3734,2.3752,2.3775,2.3807,2.3833,2.3845,2.387,2.3886,2.3883,2.3892,2.389,2.3892,2.3844,2.3835,2.3894,2.3894,2.3894,2.3894,2.3894,2.3894,2.3623,2.3661,2.3665,2.371,2.3722,2.3753,2.3765,2.3782,2.3796,2.3832,2.3854,2.3862,2.3877,2.3902,2.3925,2.3928,2.3936,2.3946,2.3947,2.3902,2.3896,2.389,2.388,2.3948,2.3948,2.3992,2.3992,2.3992]},{"header":{"parameterUnit":"m.s-1","parameterCategory":1,"la1":30.2991,"la2":30.254,"lo1":-89.0895,"lo2":-89.0444,"dy":0.0017,"dx":0.0017,"nx":28,"ny":28,"refTime":"2025-06-04T21:00:00:Z","depth":0,"parameterNumber":3,"parameterNumberName":"V-component_of_WINDS"},"data":[0,0,0,0,0,0,0,0,0,0,0,0,0,0,0,0,0,0,0,0,0,0,0,0,0,0,0,0,0,0,0,0,0,0,0,0,0,0,0,0,0,0,0,0,0,0,0,0,0,0,0,0,0,0,0,0,0,0,0.8768,0.8769,0,0.8848,0.8849,0.885,0.8858,0.8857,0.8856,0.8855,0.8939,0.8942,0.8945,0,0,0,0,0,0,0,0,0,0,0,0,0,0.8621,0.8624,0.8768,0.8769,0.877,0.8848,0.8849,0.885,0.8858,0.8857,0.8856,0.8855,0.8938,0.8941,0.8945,0,0,0,0,0,0,0,0,0,0,0,0,0,0.8691,0.8625,0.8768,0.8783,0.8785,0.8848,0.8849,0.8851,0.8858,0.8857,0.8855,0.8854,0.8936,0.8941,0.8945,0.8999,0,0,0.8959,0.8961,0,0,0,0,0,0,0,0,0.8687,0.8697,0.878,0.8782,0.8785,0.8842,0.8828,0.89,0.8858,0.883,0.8855,0.8854,0.8908,0.8914,0.8932,0.9003,0.9006,0.896,0.8962,0.8964,0.8966,0,0,0,0,0,0,0,0.8683,0.8693,0.88,0.8781,0.8784,0.8786,0.8795,0.8842,0.8875,0.8833,0.8833,0.8843,0.8909,0.8928,0.8934,0.9008,0.8959,0.8963,0.8966,0.8968,0.9125,0.9126,0,0,0,0,0,0,0.8675,0.8689,0.8797,0.8802,0.8732,0.879,0.8799,0.8825,0.8875,0.8881,0.8844,0.8843,0.8921,0.8929,0.8937,0.9003,0.8964,0.8968,0.8971,0.9124,0.9125,0.9127,0,0,0,0,0,0,0.8672,0.8684,0.8794,0.8746,0.876,0.8793,0.8822,0.8827,0.8846,0.8883,0.8889,0.8857,0.892,0.8931,0.8983,0.9006,0.8971,0.8975,0.9122,0.9124,0.9126,0.9135,0,0,0,0,0,0,0.8667,0.8683,0.8704,0.8746,0.8763,0.8839,0.8823,0.8829,0.8854,0.8853,0.8897,0.8903,0.892,0.8976,0.8988,0.9011,0.8978,0.912,0.9123,0.9125,0.9132,0.9137,0.914,0,0,0,0,0,0.8662,0.8704,0.8705,0.8718,0.8789,0.884,0.8849,0.8867,0.8856,0.8877,0.89,0.8902,0.9001,0.8982,0.8994,0.902,0.9119,0.9122,0.9125,0.9131,0.9136,0.914,0,0,0,0,0,0,0.8664,0.8709,0.8712,0.8768,0.88,0.8841,0.8869,0.8872,0.8909,0.8907,0.8927,0.8937,0.8989,0.9009,0.8987,0.9074,0.9059,0.9065,0.9059,0.9064,0.9068,0.9062,0.8982,0,0,0,0,0,0.867,0.8708,0.8746,0.8792,0.8808,0.8835,0.8858,0.8869,0.8903,0.8917,0.8944,0.8977,0.9016,0.9041,0.9078,0.9135,0.9145,0.9159,0.9163,0.9166,0.9171,0.9202,0.9208,0.9138,0.9138,0.9137,0,0,0.8685,0.8715,0.8737,0.8793,0.8819,0.8857,0.8847,0.8888,0.8916,0.8923,0.8974,0.8995,0.9033,0.9088,0.9113,0.9107,0.9192,0.917,0.9172,0.9176,0.9206,0.9213,0.9218,0.914,0.9139,0.9139,0,0,0.8732,0.8758,0.8799,0.8825,0.8864,0.8882,0.8891,0.8932,0.8946,0.8997,0.9003,0.9037,0.9103,0.913,0.9152,0.9207,0.921,0.9218,0.924,0.9269,0.9275,0.928,0.9299,0.9306,0.9223,0.9223,0.9223,0,0.8745,0.8803,0.8819,0.886,0.8884,0.8891,0.8933,0.8957,0.9007,0.9023,0.9015,0.9097,0.9124,0.9184,0.9197,0.9215,0.9227,0.9214,0.9273,0.9278,0.9283,0.9302,0.9309,0.9224,0.9224,0.9224,0.9224,0,0.8817,0.8857,0.8885,0.8932,0.8959,0.9,0.9023,0.9049,0.9056,0.9075,0.9127,0.9158,0.9202,0.9217,0.9225,0.9278,0.9273,0.9268,0.9254,0.929,0.9308,0.9315,0.9225,0.9225,0.9224,0.9224,0,0,0.8869,0.8923,0.8933,0.8954,0.8997,0.9028,0.9069,0.9111,0.9132,0.9166,0.92,0.9255,0.9251,0.9276,0.9287,0.9314,0.9354,0.9306,0.9307,0.9314,0.9414,0.9418,0.9426,0.9356,0.9357,0.9359,0.9411,0,0.892,0.8993,0.9008,0.9071,0.9108,0.9114,0.9149,0.9179,0.9197,0.9231,0.925,0.9289,0.928,0.9296,0.9321,0.9344,0.9375,0.934,0.9389,0.939,0.9379,0.9435,0.944,0.9488,0.9418,0.9419,0.942,0,0.899,0.9025,0.9091,0.9128,0.9144,0.9175,0.9215,0.9246,0.928,0.9291,0.9319,0.9327,0.9369,0.9351,0.941,0.9386,0.9406,0.942,0.9422,0.9428,0.9408,0.9443,0.9504,0.9511,0.9432,0.9431,0.943,0,0.9021,0.9084,0.9131,0.9149,0.9194,0.9215,0.9235,0.9267,0.9291,0.9325,0.9341,0.938,0.9401,0.9431,0.9449,0.9434,0.9506,0.949,0.9516,0.9516,0.9532,0.9531,0.9597,0.9544,0.9544,0.9544,0.9544,0,0.9077,0.9118,0.9146,0.9175,0.922,0.9237,0.9281,0.9301,0.9329,0.9362,0.937,0.94,0.9422,0.9456,0.947,0.9516,0.9525,0.9536,0.9539,0.9535,0.9534,0.955,0.9547,0.9546,0.9545,0.9545,0.9544,0,0.912,0.914,0.9193,0.923,0.924,0.9271,0.9303,0.9332,0.9349,0.9391,0.9401,0.9429,0.9469,0.9489,0.9539,0.9549,0.96,0.9602,0.9589,0.9591,0.9616,0.9613,0.9695,0.9706,0.9645,0.9646,0.9646,0,0.9155,0.9186,0.9226,0.9248,0.9268,0.9304,0.9328,0.9346,0.9371,0.9411,0.9434,0.9474,0.9508,0.9571,0.9595,0.9633,0.9636,0.9661,0.9641,0.9636,0.9636,0.9634,0.9637,0.9665,0.9666,0.9666,0.9667,0,0.9215,0.9223,0.9257,0.9295,0.9323,0.9354,0.9384,0.9402,0.9424,0.9451,0.9492,0.9518,0.9568,0.9608,0.9647,0.9667,0.9671,0.9673,0.9681,0.9678,0.9669,0.9674,0.9599,0.9671,0.9671,0.967,0.967,0.967,0.9255,0.9283,0.9315,0.9352,0.9377,0.9404,0.9433,0.9453,0.9487,0.9529,0.9537,0.958,0.9612,0.9665,0.9686,0.972,0.9714,0.9726,0.9729,0.9732,0.9733,0.9663,0.9727,0.9727,0.9727,0.9727,0.9726,0,0.9315,0.9336,0.937,0.9412,0.9441,0.9441,0.9474,0.9499,0.9536,0.9565,0.9597,0.9644,0.9682,0.9708,0.9747,0.9768,0.9771,0.9778,0.9777,0.9781,0.9736,0.9725,0.9775,0.9775,0.9775,0.9775,0.9775,0.9775,0.935,0.9397,0.9408,0.9466,0.9487,0.9528,0.9547,0.9573,0.9596,0.9647,0.9678,0.9695,0.9723,0.9763,0.9798,0.9805,0.9819,0.9826,0.9833,0.979,0.9785,0.978,0.977,0.9829,0.9829,0.9876,0.9876,0.9876]}]]